Sussex, NJ

9:52 PM EDT on July 25, 2016 (GMT -0400)
Sussex

Weather History for KFWN - May, 2013

Change the Weather History Date:

Wednesday, May 8, 2013

  Actual Average Record
Temperature  
Mean Temperature 60 °F -  
Max Temperature 68 °F 68 °F 88 °F (1959)
Min Temperature 53 °F 38 °F 26 °F (1974)
Degree Days  
Heating Degree Days 6    
Growing Degree Days 10 (Base 50)    
Moisture  
Dew Point 58 °F    
Average Humidity 87    
Maximum Humidity 100    
Minimum Humidity 73    
Precipitation  
Precipitation 1.10 in - - ()
Sea Level Pressure  
Sea Level Pressure 30.02 in    
Wind  
Wind Speed 5 mph (NE)    
Max Wind Speed 13 mph    
Max Gust Speed 20 mph    
Visibility 7 miles    
Events Fog , Rain , Thunderstorm    
Averages and records for this station are not official NWS values.
T = Trace of Precipitation, MM = Missing Value Source: NWS Daily Summary

Daily Weather History Graph

Daily Weather History Graph

Search for Another Location

Airport or City:

Trip Planner

Search our weather history database for the weather conditions in past years. The results will help you decide how hot, cold, wet, or windy it might be!

Date:

Astronomy

May. 08, 2013 Rise Set
Actual Time 5:47 AM EDT 8:03 PM EDT
Civil Twilight 5:16 AM EDT 8:34 PM EDT
Nautical Twilight 4:38 AM EDT 9:12 PM EDT
Astronomical Twilight 3:57 AM EDT 9:53 PM EDT
Moon 4:54 AM EDT (5/8) 6:58 PM EDT (5/8)
Length of Visible Light 15h 17m
Length of Day
14h 15m
Waning Crescent, 2% of the Moon is Illuminated
May 8
Waning Crescent
May 9
New
May 18
First Quarter
May 25
Full
May 31
Last Quarter

Hourly Weather History & Observations

Time (EDT) Temp. Dew Point Humidity Pressure Visibility Wind Dir Wind Speed Gust Speed Precip Events Conditions
12:53 AM 62.1 °F 55.9 °F 80% 30.09 in 10.0 mi NE 3.5 mph - N/A   Mostly Cloudy
1:53 AM 61.0 °F 55.0 °F 81% 30.08 in 10.0 mi NNE 3.5 mph - 0.00 in   Overcast
2:53 AM 61.0 °F 55.0 °F 81% 30.06 in 10.0 mi NE 3.5 mph - 0.00 in   Mostly Cloudy
3:17 AM 60.8 °F 55.4 °F 82% 30.06 in 10.0 mi Calm Calm - 0.00 in Rain Light Rain
3:25 AM 60.8 °F 55.4 °F 82% 30.06 in 10.0 mi NNE 4.6 mph - 0.00 in Rain Light Rain
3:53 AM 60.1 °F 55.9 °F 86% 30.06 in 10.0 mi Calm Calm - 0.00 in   Overcast
4:53 AM 61.0 °F 57.0 °F 87% 30.04 in 10.0 mi NE 3.5 mph - 0.01 in Rain Light Rain
5:04 AM 60.8 °F 57.2 °F 88% 30.05 in 7.0 mi Calm Calm - 0.02 in Rain Light Rain
5:15 AM 60.8 °F 57.2 °F 88% 30.05 in 10.0 mi NE 3.5 mph - 0.03 in Rain Light Rain
5:53 AM 60.1 °F 57.0 °F 90% 30.04 in 10.0 mi North 3.5 mph - 0.05 in Rain Light Rain
6:53 AM 60.1 °F 57.0 °F 90% 30.06 in 10.0 mi ENE 4.6 mph - 0.00 in   Overcast
7:02 AM 60.8 °F 57.2 °F 88% 30.07 in 10.0 mi NE 5.8 mph - N/A   Overcast
7:53 AM 60.1 °F 57.9 °F 93% 30.07 in 10.0 mi NNE 6.9 mph - 0.00 in Rain Light Rain
8:25 AM 60.8 °F 57.2 °F 88% 30.08 in 2.5 mi NE 8.1 mph - 0.06 in Rain Rain
8:34 AM 60.8 °F 57.2 °F 88% 30.08 in 4.0 mi NE 6.9 mph - 0.07 in Rain Light Rain
8:53 AM 60.1 °F 57.9 °F 93% 30.09 in 5.0 mi NNE 6.9 mph - 0.10 in Rain Light Rain
9:00 AM 60.8 °F 57.2 °F 88% 30.09 in 5.0 mi NE 4.6 mph - 0.01 in Rain Light Rain
9:42 AM 60.8 °F 57.2 °F 88% 30.07 in 2.5 mi NNE 9.2 mph - 0.18 in Rain Heavy Rain
9:50 AM 60.8 °F 57.2 °F 88% 30.07 in 4.0 mi NNE 9.2 mph - 0.20 in Rain Rain
9:53 AM 60.1 °F 57.9 °F 93% 30.07 in 5.0 mi NNE 10.4 mph - 0.20 in Rain Light Rain
10:53 AM 62.1 °F 57.9 °F 86% 30.06 in 10.0 mi NE 5.8 mph - 0.01 in   Mostly Cloudy
11:45 AM 64.4 °F 59.0 °F 83% 30.05 in 10.0 mi ENE 12.7 mph - N/A   Mostly Cloudy
11:53 AM 64.9 °F 59.0 °F 81% 30.04 in 10.0 mi NE 11.5 mph 18.4 mph N/A   Mostly Cloudy
12:09 PM 66.2 °F 57.2 °F 73% 30.05 in 10.0 mi NE 8.1 mph - N/A   Mostly Cloudy
12:19 PM 66.2 °F 57.2 °F 73% 30.04 in 10.0 mi NE 10.4 mph - N/A   Overcast
12:42 PM 66.2 °F 57.2 °F 73% 30.02 in 10.0 mi NNE 9.2 mph - N/A   Overcast
12:53 PM 66.0 °F 57.9 °F 75% 30.01 in 10.0 mi North 6.9 mph - N/A   Overcast
1:23 PM 64.4 °F 59.0 °F 83% 30.00 in 10.0 mi NNE 5.8 mph - 0.00 in   Overcast
1:37 PM 64.4 °F 57.2 °F 77% 30.00 in 2.5 mi NE 9.2 mph 19.6 mph 0.04 in Rain , Thunderstorm Rain
1:53 PM 62.1 °F 59.0 °F 90% 30.00 in 2.0 mi NE 5.8 mph - 0.10 in Rain Rain
2:01 PM 62.6 °F 59.0 °F 88% 30.00 in 2.5 mi NE 6.9 mph - 0.02 in Rain , Thunderstorm Light Thunderstorms and Rain
2:06 PM 62.6 °F 59.0 °F 88% 30.00 in 4.0 mi NE 4.6 mph - 0.02 in Rain , Thunderstorm Light Thunderstorms and Rain
2:24 PM 60.8 °F 60.8 °F 100% 29.99 in 2.0 mi South 8.1 mph - 0.11 in Rain Light Rain
2:27 PM 60.8 °F 60.8 °F 100% 29.99 in 0.8 mi SSW 4.6 mph - 0.23 in Rain Heavy Rain
2:37 PM 60.8 °F 60.8 °F 100% 29.99 in 0.5 mi WSW 3.5 mph - 0.38 in Fog , Rain Heavy Rain
2:42 PM 62.6 °F 60.8 °F 94% 29.99 in 1.0 mi Calm Calm - 0.39 in Rain Light Rain
2:45 PM 62.6 °F 60.8 °F 94% 29.99 in 2.0 mi Calm Calm - 0.39 in Rain Light Rain
2:47 PM 62.6 °F 60.8 °F 94% 29.98 in 3.0 mi Calm Calm - 0.39 in Rain Light Rain
2:53 PM 63.0 °F 61.0 °F 93% 29.98 in 7.0 mi Calm Calm - 0.39 in Rain Light Rain
3:53 PM 66.9 °F 62.1 °F 84% 29.96 in 10.0 mi Variable 3.5 mph - 0.00 in   Overcast
4:38 PM 66.2 °F 60.8 °F 83% 29.96 in 10.0 mi SE 6.9 mph - N/A   Scattered Clouds
4:53 PM 66.0 °F 60.1 °F 81% 29.96 in 10.0 mi SE 11.5 mph - N/A   Partly Cloudy
5:53 PM 66.0 °F 59.0 °F 78% 29.96 in 10.0 mi East 4.6 mph - N/A   Clear
6:49 PM 66.2 °F 57.2 °F 73% 29.96 in 10.0 mi East 6.9 mph - N/A   Overcast
6:53 PM 66.0 °F 57.0 °F 73% 29.96 in 10.0 mi ESE 5.8 mph - N/A   Mostly Cloudy
7:46 PM 62.6 °F 59.0 °F 88% 29.98 in 1.8 mi ESE 9.2 mph - 0.09 in Rain Heavy Rain
7:53 PM 62.1 °F 59.0 °F 90% 29.97 in 1.2 mi East 5.8 mph - 0.19 in Rain Heavy Rain
7:58 PM 62.6 °F 59.0 °F 88% 29.98 in 2.0 mi East 6.9 mph - 0.01 in Rain Light Rain
8:06 PM 60.8 °F 57.2 °F 88% 29.98 in 4.0 mi East 3.5 mph - 0.05 in Rain Rain
8:53 PM 59.0 °F 55.0 °F 87% 29.99 in 10.0 mi Calm Calm - 0.05 in   Partly Cloudy
9:53 PM 55.9 °F 54.0 °F 93% 30.02 in 9.0 mi WSW 3.5 mph - N/A   Mostly Cloudy
10:48 PM 57.2 °F 53.6 °F 88% 30.02 in 10.0 mi Calm Calm - N/A   Overcast
10:53 PM 57.0 °F 53.1 °F 87% 30.02 in 10.0 mi Calm Calm - N/A   Overcast
11:36 PM 53.6 °F 51.8 °F 94% 30.00 in 6.0 mi Calm Calm - N/A   Scattered Clouds
11:46 PM 53.6 °F 51.8 °F 94% 30.00 in 1.8 mi Calm Calm - N/A   Partly Cloudy
11:53 PM 53.1 °F 52.0 °F 96% 30.00 in 2.0 mi Calm Calm - N/A   Clear